Other Surface Observations
Issued by NWS Charleston, SC

Home | Current Version | Previous Version | Text Only | Print | Product List | Glossary On
Versions: 1 2 3 4 5 6 7 8 9 10 11 12 13 14 15 16 17 18 19 20 21 22 23 24 25 26 27 28 29 30 31 32 33 34 35 36 37 38 39 40 41 42 43 44 45 46 47 48 49 50
000
SXUS52 KCHS 302228
OSOCHS

MARINE OBSERVATIONS
NATIONAL WEATHER SERVICE CHARLESTON SC
600 PM EDT SAT APR 30 2016

...DOWNTOWN CHARLESTON AND HARBOR...

CITY           SKY/WX    TMP DP  RH WIND       PRES   REMARKS
WATERFRONT PRK   N/A     76  72  87 E10       30.00F

...LAKE MOULTRIE...

CITY           SKY/WX    TMP DP  RH WIND       PRES   REMARKS
PINOPOLIS        N/A     86  68  54 S5        29.92F

...LAKE AND SUPPLEMENTAL COASTAL OBSERVATIONS...

STATION/POSITION TIME  TEMP    WIND        PRES    WAVE   SWELL
                       AIR SEA DIR/SP/G            HT/PER HT/PER/DIR
                 (UTC) (F)     (DEG/KT/KT) (MB)    (FT/S) (FT/S/D)
FORT PULASKI     2200   76 73              1016.1R
SAPELO ISLAND    2200   80     100/  8     1015.0S
WINYAH BAY       2145   69      60/ 16     1017.0S
LAKE MURRAY      2200   82     160/ 11/ 17 1014.2R
ACE BASIN NERRS  2100   81     140/  3     1016.0F


...C-MAN AND BUOY OBSERVATIONS...

STATION/POSITION TIME  TEMP    WIND        PRES    WAVE   SWELL
                       AIR SEA DIR/SP/G            HT/PER HT/PER/DIR
                 (UTC) (F)     (DEG/KT/KT) (MB)    (FT/S) (FT/S/D)
BUOY 41004       2150   75 74  100/ 12/ 14 1016.3R   3/10   2/10
BUOY 41008       NOT AVBL
FOLLY BEACH CMAN 2200   74     100/ 10/ 11 1016.9S
CAPERS NS BUOY   2208   74 72  100/  8/ 10 1016.8R
FRIPP NS BUOY    2208   75 75  100/  8/  8 1015.5R
5E ST. MARYS GA  2121      75                N/A     2/10


STATION/POSITION TIME  TEMP    WIND        PRES    WAVE   SWELL
                       AIR SEA DIR/SP/G            HT/PER HT/PER/DIR
                 (UTC) (F)     (DEG/KT/KT) (MB)    (FT/S) (FT/S/D)
FRYING PAN BUOY  2200   69 70   50/ 17/ 21 1018.4R
BUOY 41025       2150   59 73   30/ 19/ 21 1020.2F   5/ 9   3/ 60/ 9
CAPE LOOKOUT NC  2200   62      50/ 17/ 18 1020.2R
BUOY 41002       2150   71      70/ 10/ 12 1018.1R   5/10   5/ 30/10
BUOY 41010       2120   77 78  140/  4/  6 1015.9R
ST AUGUSTINE FL  2200   75 75  150/ 12/ 13 1015.2S

$$




USA.gov is the U.S. government's official web portal to all federal, state and local government web resources and services.